DLH407 EVRA-UMMS

Flight info

Callsign DLH407
Flight time 0h 45m
Altitude 33000
Route ERIVA DCT PODIL N623 LENOK LENOK2E
Aircraft B38M/M-SDE1FGHILORVWXY/HB1

Departure

Time 2026-05-05 16:23
Airport Riga International Airport (EVRA)

Arrival

Time 2026-05-05 17:08
Airport Minsk National Airport (UMMS)
Time Latitude Longitude Altitude Speed Heading
2026-05-05 16:08 56.92551 23.97663 46 ft 0 kts 185°
2026-05-05 16:14 56.92563 23.97665 46 ft 2 kts 187°
2026-05-05 16:14 56.92597 23.97699 46 ft 3 kts 231°
2026-05-05 16:15 56.92609 23.97769 46 ft 3 kts 272°
2026-05-05 16:15 56.92609 23.97778 46 ft 0 kts 275°
2026-05-05 16:18 56.92609 23.97769 46 ft 1 kts 264°
2026-05-05 16:19 56.92605 23.97719 46 ft 7 kts 262°
2026-05-05 16:19 56.92603 23.97605 46 ft 11 kts 253°
2026-05-05 16:19 56.92397 23.97516 46 ft 21 kts 188°
2026-05-05 16:20 56.92027 23.97451 46 ft 32 kts 185°
2026-05-05 16:20 56.91635 23.97392 46 ft 26 kts 184°
2026-05-05 16:21 56.91302 23.97236 46 ft 24 kts 232°
2026-05-05 16:22 56.91309 23.96947 46 ft 0 kts
2026-05-05 16:22 56.92101 23.97076 46 ft 137 kts
2026-05-05 16:23 56.94318 23.97378 1838 ft 165 kts
2026-05-05 16:23 56.95536 23.97552 2634 ft 189 kts
2026-05-05 16:23 56.98488 23.98021 4106 ft 237 kts
2026-05-05 16:24 57.00205 23.98312 4856 ft 257 kts
2026-05-05 16:24 57.02024 23.98632 5014 ft 266 kts
2026-05-05 16:24 57.05307 24.01854 5054 ft 280 kts 46°
2026-05-05 16:25 57.06245 24.04987 5053 ft 283 kts 70°
2026-05-05 16:25 57.06433 24.12199 5057 ft 283 kts 92°
2026-05-05 16:25 57.06350 24.15815 5054 ft 283 kts 93°
2026-05-05 16:26 57.04820 24.22299 5752 ft 283 kts 136°
2026-05-05 16:26 57.01788 24.26773 8036 ft 284 kts 148°
2026-05-05 16:27 57.00173 24.28903 9084 ft 288 kts 150°
2026-05-05 16:27 56.98520 24.31032 10103 ft 292 kts 150°
2026-05-05 16:27 56.96800 24.33169 10842 ft 306 kts 155°
2026-05-05 16:27 56.94784 24.34479 11489 ft 310 kts 173°
2026-05-05 16:28 56.92652 24.35241 12347 ft 314 kts 176°
2026-05-05 16:28 56.90485 24.35932 13277 ft 317 kts 176°
2026-05-05 16:28 56.88298 24.36642 14157 ft 324 kts 173°
2026-05-05 16:28 56.86738 24.37727 14788 ft 333 kts 162°
2026-05-05 16:29 56.85127 24.39209 15467 ft 337 kts 160°
2026-05-05 16:29 56.83731 24.40526 15958 ft 341 kts 160°
2026-05-05 16:29 56.81608 24.42546 16722 ft 345 kts 160°
2026-05-05 16:29 56.79472 24.44589 17447 ft 349 kts 160°
2026-05-05 16:30 56.77334 24.46639 18149 ft 353 kts 160°
2026-05-05 16:30 56.75146 24.48736 18838 ft 357 kts 160°
2026-05-05 16:30 56.72938 24.50850 19504 ft 361 kts 160°
2026-05-05 16:30 56.70686 24.52849 20113 ft 358 kts 167°
2026-05-05 16:31 56.68295 24.54022 20719 ft 356 kts 174°
2026-05-05 16:31 56.65875 24.55071 21354 ft 358 kts 174°
2026-05-05 16:31 56.63436 24.56105 21964 ft 361 kts 175°
2026-05-05 16:31 56.60983 24.57132 22545 ft 364 kts 175°
2026-05-05 16:32 56.58505 24.58163 23112 ft 367 kts 175°
2026-05-05 16:32 56.56005 24.59200 23655 ft 370 kts 175°
2026-05-05 16:32 56.53483 24.60243 24187 ft 373 kts 175°
2026-05-05 16:32 56.50935 24.61296 24711 ft 376 kts 175°
2026-05-05 16:33 56.48370 24.61998 25178 ft 370 kts 184°
2026-05-05 16:33 56.45790 24.62243 25685 ft 372 kts 185°
2026-05-05 16:33 56.43196 24.62473 26191 ft 374 kts 185°
2026-05-05 16:33 56.40592 24.62702 26679 ft 376 kts 185°
2026-05-05 16:34 56.37999 24.63478 27132 ft 392 kts 171°
2026-05-05 16:34 56.35500 24.65658 27667 ft 408 kts 155°
2026-05-05 16:34 56.33246 24.68843 28229 ft 414 kts 149°
2026-05-05 16:34 56.31035 24.72207 28585 ft 418 kts 148°
2026-05-05 16:35 56.28812 24.75625 28977 ft 421 kts 148°
2026-05-05 16:35 56.26583 24.79073 29372 ft 424 kts 148°
2026-05-05 16:35 56.24344 24.82539 29779 ft 425 kts 148°
2026-05-05 16:35 56.22089 24.86026 30155 ft 428 kts 148°
2026-05-05 16:36 56.19830 24.89514 30524 ft 430 kts 148°
2026-05-05 16:36 56.17553 24.93025 30883 ft 432 kts 148°
2026-05-05 16:36 56.15266 24.96546 31239 ft 434 kts 148°
2026-05-05 16:36 56.12968 25.00078 31584 ft 436 kts 148°
2026-05-05 16:37 56.10657 25.03624 31946 ft 438 kts 148°
2026-05-05 16:37 56.08344 25.07167 32407 ft 436 kts 148°
2026-05-05 16:37 56.06039 25.10693 32796 ft 437 kts 148°
2026-05-05 16:37 56.03724 25.14227 32822 ft 436 kts 148°
2026-05-05 16:38 55.99115 25.21247 32825 ft 435 kts 148°
2026-05-05 16:38 55.94444 25.28338 32831 ft 454 kts 147°
2026-05-05 16:39 55.89548 25.35746 32823 ft 466 kts 147°
2026-05-05 16:39 55.84592 25.43220 32823 ft 468 kts 147°
2026-05-05 16:40 55.79622 25.50688 32824 ft 468 kts 147°
2026-05-05 16:40 55.74635 25.58156 32825 ft 468 kts 147°
2026-05-05 16:41 55.69645 25.65603 32826 ft 468 kts 147°
2026-05-05 16:41 55.64652 25.73028 32827 ft 468 kts 148°
2026-05-05 16:42 55.59662 25.80423 32828 ft 468 kts 148°
2026-05-05 16:42 55.54660 25.87810 32829 ft 468 kts 148°
2026-05-05 16:43 55.49690 25.95127 32830 ft 468 kts 148°
2026-05-05 16:43 55.44745 26.02385 32824 ft 453 kts 148°
2026-05-05 16:44 55.39818 26.09584 32708 ft 466 kts 147°
2026-05-05 16:44 55.34809 26.16883 32619 ft 468 kts 147°
2026-05-05 16:45 55.29792 26.24168 32604 ft 467 kts 147°
2026-05-05 16:45 55.24821 26.31365 32103 ft 455 kts 147°
2026-05-05 16:46 55.22380 26.34890 31243 ft 454 kts 147°
2026-05-05 16:46 55.19939 26.38411 30338 ft 453 kts 147°
2026-05-05 16:46 55.17508 26.41913 29430 ft 452 kts 146°
2026-05-05 16:46 55.15076 26.45408 28517 ft 451 kts 146°
2026-05-05 16:47 55.12742 26.49079 27595 ft 454 kts 141°
2026-05-05 16:47 55.10491 26.52949 26680 ft 452 kts 141°
2026-05-05 16:47 55.08241 26.56766 25798 ft 449 kts 141°
2026-05-05 16:47 55.06014 26.60511 25193 ft 440 kts 141°
2026-05-05 16:48 55.03866 26.64107 24734 ft 427 kts 141°
2026-05-05 16:48 55.01745 26.67651 24261 ft 416 kts 141°
2026-05-05 16:48 54.99678 26.71096 23776 ft 406 kts 141°
2026-05-05 16:48 54.97660 26.74456 23297 ft 397 kts 141°
2026-05-05 16:49 54.95689 26.77734 22828 ft 388 kts 141°
2026-05-05 16:49 54.93757 26.80942 22366 ft 379 kts 141°
2026-05-05 16:49 54.91867 26.84075 21913 ft 371 kts 142°
2026-05-05 16:49 54.90017 26.87138 21468 ft 363 kts 142°
2026-05-05 16:50 54.88203 26.90138 21026 ft 356 kts 142°
2026-05-05 16:50 54.86426 26.93072 20592 ft 349 kts 142°
2026-05-05 16:50 54.84684 26.95945 20165 ft 342 kts 142°
2026-05-05 16:50 54.82966 26.98774 19521 ft 342 kts 141°
2026-05-05 16:51 54.81233 27.01626 18790 ft 345 kts 141°
2026-05-05 16:51 54.79484 27.04500 18046 ft 348 kts 141°
2026-05-05 16:51 54.77720 27.07395 17294 ft 350 kts 141°
2026-05-05 16:51 54.75941 27.10309 16535 ft 352 kts 141°
2026-05-05 16:52 54.74157 27.13231 15771 ft 354 kts 141°
2026-05-05 16:52 54.72365 27.16159 15001 ft 355 kts 141°
2026-05-05 16:52 54.70570 27.19091 14232 ft 355 kts 141°
2026-05-05 16:52 54.68772 27.22022 13459 ft 355 kts 141°
2026-05-05 16:53 54.66974 27.24951 12681 ft 355 kts 141°
2026-05-05 16:53 54.65199 27.27837 11912 ft 355 kts 141°
2026-05-05 16:53 54.63417 27.30734 11136 ft 354 kts 141°
2026-05-05 16:53 54.61615 27.33658 10430 ft 350 kts 141°
2026-05-05 16:54 54.59849 27.36523 9663 ft 348 kts 141°
2026-05-05 16:54 54.58092 27.39368 8923 ft 345 kts 141°
2026-05-05 16:54 54.56343 27.42151 8314 ft 337 kts 144°
2026-05-05 16:54 54.54337 27.43977 7749 ft 318 kts 167°
2026-05-05 16:55 54.52229 27.44546 7494 ft 297 kts 178°
2026-05-05 16:55 54.50216 27.44884 7194 ft 284 kts 179°
2026-05-05 16:55 54.48272 27.45193 6831 ft 275 kts 179°
2026-05-05 16:55 54.46421 27.45484 6462 ft 267 kts 179°
2026-05-05 16:56 54.44574 27.45769 6096 ft 259 kts 179°
2026-05-05 16:56 54.42825 27.46039 5749 ft 252 kts 179°
2026-05-05 16:56 54.41103 27.46305 5403 ft 246 kts 179°
2026-05-05 16:56 54.39389 27.46569 5077 ft 249 kts 179°
2026-05-05 16:57 54.37673 27.46834 4838 ft 242 kts 179°
2026-05-05 16:57 54.36035 27.47084 4629 ft 231 kts 179°
2026-05-05 16:57 54.34476 27.47324 4426 ft 220 kts 179°
2026-05-05 16:57 54.32989 27.47552 4243 ft 209 kts 179°
2026-05-05 16:58 54.31553 27.47771 4167 ft 206 kts 179°
2026-05-05 16:58 54.30113 27.47991 4184 ft 211 kts 179°
2026-05-05 16:58 54.28625 27.48218 4090 ft 217 kts 179°
2026-05-05 16:58 54.27132 27.48471 4031 ft 217 kts 176°
2026-05-05 16:59 54.25726 27.49513 4013 ft 224 kts 154°
2026-05-05 16:59 54.24886 27.50553 4018 ft 225 kts 147°
2026-05-05 16:59 54.23674 27.52252 4009 ft 226 kts 144°
2026-05-05 16:59 54.22471 27.53994 4002 ft 226 kts 143°
2026-05-05 17:00 54.21275 27.55740 3996 ft 226 kts 143°
2026-05-05 17:00 54.20083 27.57491 4002 ft 227 kts 143°
2026-05-05 17:00 54.18890 27.59250 3996 ft 226 kts 143°
2026-05-05 17:00 54.17697 27.61010 3959 ft 227 kts 143°
2026-05-05 17:01 54.16502 27.62772 3872 ft 227 kts 143°
2026-05-05 17:01 54.15326 27.64512 3780 ft 226 kts 142°
2026-05-05 17:01 54.14125 27.66291 3696 ft 226 kts 142°
2026-05-05 17:01 54.12953 27.68029 3603 ft 226 kts 142°
2026-05-05 17:02 54.11764 27.69787 3512 ft 226 kts 142°
2026-05-05 17:02 54.10574 27.71535 3459 ft 225 kts 144°
2026-05-05 17:02 54.09300 27.73083 3464 ft 225 kts 149°
2026-05-05 17:02 54.08006 27.74593 3454 ft 226 kts 149°
2026-05-05 17:03 54.06714 27.76112 3313 ft 225 kts 149°
2026-05-05 17:03 54.05433 27.77626 3103 ft 223 kts 148°
2026-05-05 17:03 54.04256 27.79207 3069 ft 209 kts 143°
2026-05-05 17:03 54.03192 27.80787 3021 ft 198 kts 142°
2026-05-05 17:04 54.02163 27.82333 3006 ft 198 kts 142°
2026-05-05 17:04 54.01130 27.83877 3030 ft 198 kts 142°
2026-05-05 17:04 54.00093 27.85428 3014 ft 198 kts 142°
2026-05-05 17:04 53.99069 27.86958 2896 ft 199 kts 142°
2026-05-05 17:05 53.98034 27.88505 2671 ft 197 kts 141°
2026-05-05 17:05 53.97007 27.90038 2441 ft 187 kts 141°
2026-05-05 17:05 53.96082 27.91416 2196 ft 171 kts 140°
2026-05-05 17:05 53.95240 27.92671 1989 ft 154 kts 139°
2026-05-05 17:06 53.94445 27.93856 1793 ft 151 kts 139°
2026-05-05 17:06 53.93654 27.95032 1656 ft 151 kts 137°
2026-05-05 17:06 53.92865 27.96207 1495 ft 150 kts 137°
2026-05-05 17:06 53.92089 27.97361 1315 ft 147 kts 136°
2026-05-05 17:07 53.91328 27.98493 1137 ft 144 kts 136°
2026-05-05 17:07 53.90574 27.99613 972 ft 144 kts 136°
2026-05-05 17:07 53.89822 28.00732 798 ft 143 kts 136°
2026-05-05 17:07 53.89086 28.01826 682 ft 130 kts 136°
2026-05-05 17:08 53.88613 28.02541 682 ft 77 kts 140°
2026-05-05 17:08 53.88327 28.02958 682 ft 22 kts 138°
2026-05-05 17:08 53.88295 28.03127 682 ft 14 kts 49°
2026-05-05 17:08 53.88361 28.03252 682 ft 15 kts 49°
2026-05-05 17:09 53.88410 28.03402 682 ft 11 kts 109°
2026-05-05 17:09 53.88359 28.03502 682 ft 12 kts 121°
2026-05-05 17:09 53.88376 28.03599 682 ft 9 kts 48°
2026-05-05 17:09 53.88424 28.03689 682 ft 12 kts 47°
2026-05-05 17:10 53.88487 28.03806 682 ft 15 kts 47°
2026-05-05 17:10 53.88495 28.03819 682 ft 0 kts 47°